HB9TUO-2 Weather Reports


Display with metric or nautical units.
time (UTC)temp
F
wind
direction
speed
MPH
gust
MPH
rain 1hr
in
rain 24hr
in
rain mn
in
humidity
%
barometer
mb
20260506233004 43 315 5.0 6.0 0.00 0.66 0.00 98 1009.1
20260506232716 43 315 5.0 6.0 0.00 0.66 0.00 98 1009.3
20260506232004 43 315 5.0 6.0 0.00 0.66 0.00 98 1009.2
20260506231504 43 315 5.0 6.0 0.00 0.66 0.00 98 1009.2
20260506231004 43 315 5.0 6.0 0.00 0.67 0.00 98 1009.2
20260506230713 43 315 5.0 6.0 0.00 0.67 0.00 98 1009.3
20260506230004 43 315 5.0 6.0 0.00 0.67 0.00 98 1009.1
20260506225504 43 315 5.0 6.0 0.00 0.69 0.00 98 1009.1
20260506225004 43 315 5.0 6.0 0.00 0.69 0.00 98 1009.1
20260506224504 43 315 5.0 6.0 0.00 0.69 0.00 98 1009.1
20260506224004 43 315 5.0 6.0 0.00 0.70 0.00 98 1008.9
20260506223504 43 315 5.0 6.0 0.00 0.70 0.00 98 1009.0
20260506223004 43 315 5.0 6.0 0.00 0.70 0.00 98 1008.8
20260506222504 43 315 5.0 6.0 0.00 0.70 0.00 98 1008.8
20260506222215 43 315 5.0 6.0 0.00 0.70 0.00 98 1008.9
20260506221504 43 315 5.0 6.0 0.00 0.71 0.00 98 1008.8
20260506221003 43 315 5.0 6.0 0.00 0.71 0.00 98 1008.9
20260506220503 43 315 5.0 6.0 0.00 0.73 0.00 98 1008.8
20260506220004 43 315 5.0 6.0 0.00 0.73 0.00 98 1009.0
20260506215503 43 315 5.0 6.0 0.00 0.73 0.73 98 1009.0
20260506215213 43 315 5.0 6.0 0.00 0.74 0.73 98 1009.0
20260506214503 43 315 5.0 6.0 0.00 0.74 0.73 98 1009.1
20260506214003 43 315 5.0 6.0 0.00 0.74 0.73 98 1008.9
20260506213503 43 315 5.0 6.0 0.00 0.76 0.73 98 1009.0
20260506213003 43 315 5.0 6.0 0.00 0.76 0.73 98 1008.9
20260506212503 43 315 5.0 6.0 0.00 0.77 0.73 98 1008.9
20260506212216 43 315 5.0 6.0 0.00 0.77 0.73 98 1009.0
20260506211503 43 315 5.0 6.0 0.00 0.78 0.73 98 1008.8
20260506211003 43 315 5.0 6.0 0.00 0.78 0.73 98 1008.8
20260506210714 43 315 5.0 6.0 0.00 0.78 0.73 98 1008.6
20260506210217 43 315 5.0 6.0 0.00 0.79 0.73 98 1008.6
20260506205503 43 315 5.0 6.0 0.00 0.79 0.73 98 1008.8
20260506205003 43 315 5.0 6.0 0.00 0.79 0.73 98 1008.9
20260506204716 43 315 5.0 6.0 0.00 0.79 0.73 98 1008.7
20260506204004 43 315 5.0 6.0 0.00 0.81 0.73 98 1008.8
20260506203504 43 315 5.0 6.0 0.00 0.84 0.73 98 1008.7
20260506203004 43 315 5.0 6.0 0.00 0.86 0.73 98 1008.6
20260506202504 43 315 5.0 6.0 0.00 0.86 0.73 98 1008.8
20260506202004 43 315 5.0 6.0 0.00 0.87 0.73 98 1008.7
20260506201504 43 315 5.0 6.0 0.00 0.87 0.73 98 1008.8
20260506201004 43 315 5.0 6.0 0.00 0.87 0.73 98 1008.7
20260506200504 43 315 5.0 6.0 0.00 0.89 0.73 98 1008.5
20260506200004 43 315 5.0 6.0 0.00 0.89 0.73 98 1008.5
20260506195504 43 315 5.0 6.0 0.00 0.89 0.73 98 1008.6
20260506195004 43 315 5.0 6.0 0.00 0.90 0.73 98 1008.4
20260506194504 43 315 5.0 6.0 0.00 0.90 0.73 98 1008.3
20260506194215 43 315 5.0 6.0 0.00 0.91 0.73 98 1008.3
20260506193503 43 315 5.0 6.0 0.00 0.92 0.73 98 1008.0
20260506193004 43 315 5.0 6.0 0.00 0.92 0.73 98 1007.9
20260506192504 43 315 5.0 6.0 0.00 0.92 0.73 98 1008.0
20260506192217 43 315 5.0 6.0 0.00 0.92 0.73 98 1007.7
20260506191504 43 315 5.0 6.0 0.00 0.92 0.73 98 1007.8
20260506191003 43 315 5.0 6.0 0.00 0.92 0.73 98 1007.6
20260506190504 43 315 5.0 6.0 0.00 0.92 0.73 98 1007.4
20260506190004 43 315 5.0 6.0 0.00 0.93 0.73 98 1007.5
20260506185504 43 315 5.0 6.0 0.00 0.93 0.73 98 1007.4
20260506185004 43 315 5.0 6.0 0.00 0.93 0.73 98 1007.3
20260506184504 43 315 5.0 6.0 0.00 0.93 0.73 98 1007.5
20260506184003 43 315 5.0 6.0 0.00 0.94 0.73 98 1007.3
20260506183714 43 315 5.0 6.0 0.00 0.94 0.73 98 1007.2
20260506183004 43 315 5.0 6.0 0.00 0.94 0.73 98 1007.1
20260506182503 43 315 5.0 6.0 0.00 0.96 0.73 98 1007.1
20260506182003 43 315 5.0 6.0 0.00 0.96 0.73 98 1006.8
20260506181504 43 315 5.0 6.0 0.00 0.97 0.73 98 1006.7
20260506181004 43 315 5.0 6.0 0.00 0.97 0.73 98 1006.8
20260506180504 43 315 5.0 6.0 0.00 0.97 0.73 98 1006.5
20260506180004 43 315 5.0 6.0 0.00 0.97 0.73 98 1006.5
20260506175503 43 315 5.0 6.0 0.00 0.97 0.73 98 1006.7
20260506175004 43 315 5.0 6.0 0.00 0.98 0.73 98 1006.5
20260506174503 43 315 5.0 6.0 0.00 0.98 0.73 98 1006.7
20260506174003 43 315 5.0 6.0 0.00 0.99 0.73 98 1006.7
20260506173714 43 315 5.0 6.0 0.00 0.99 0.73 98 1006.6
20260506173003 43 315 5.0 6.0 0.00 0.99 0.73 98 1006.6
20260506172503 43 315 5.0 6.0 0.00 1.00 0.73 98 1006.5
20260506172004 43 315 5.0 6.0 0.00 1.00 0.73 98 1006.5
20260506171504 43 315 5.0 6.0 0.00 1.00 0.73 98 1006.6
20260506171004 43 315 5.0 6.0 0.00 1.02 0.73 98 1006.4
20260506170504 43 315 5.0 6.0 0.00 1.02 0.73 98 1006.3
20260506170004 43 315 5.0 6.0 0.00 1.02 0.73 98 1006.4
20260506165504 43 315 5.0 6.0 0.00 1.02 0.73 98 1006.6
20260506165216 43 315 5.0 6.0 0.00 1.02 0.73 98 1006.6
20260506164504 43 315 5.0 6.0 0.00 1.02 0.73 98 1006.5
20260506164004 43 315 5.0 6.0 0.00 1.02 0.73 98 1006.3
20260506163504 43 315 5.0 6.0 0.00 1.02 0.73 98 1006.5
20260506163004 43 315 5.0 6.0 0.00 1.03 0.73 98 1006.4
20260506162504 43 315 5.0 6.0 0.00 1.03 0.73 98 1006.2
20260506162004 43 315 5.0 6.0 0.00 1.03 0.73 98 1006.3
20260506161504 43 315 5.0 6.0 0.00 1.03 0.73 98 1006.2
20260506161215 43 315 5.0 6.0 0.00 1.03 0.73 98 1006.1
20260506160503 43 315 5.0 6.0 0.00 1.03 0.73 98 1006.2
20260506160004 43 315 5.0 6.0 0.00 1.03 0.73 98 1006.3
20260506155503 43 315 5.0 6.0 0.00 1.03 0.73 98 1006.4
20260506155004 43 315 5.0 6.0 0.00 1.03 0.73 98 1006.6
20260506154504 43 315 5.0 6.0 0.00 1.03 0.73 98 1006.6
20260506154218 43 315 5.0 6.0 0.00 1.03 0.73 98 1006.5
20260506153503 43 315 5.0 6.0 0.00 1.04 0.73 98 1006.5
20260506153003 43 315 5.0 6.0 0.00 1.04 0.73 98 1006.9
20260506152503 43 315 5.0 6.0 0.00 1.04 0.73 98 1006.7
20260506152004 43 315 5.0 6.0 0.00 1.04 0.73 98 1006.8
20260506151503 43 315 5.0 6.0 0.00 1.04 0.73 98 1006.5
20260506151003 43 315 5.0 6.0 0.00 1.04 0.73 98 1006.8
20260506150504 43 315 5.0 6.0 0.00 1.04 0.73 98 1006.6
20260506150004 43 315 5.0 6.0 0.00 1.04 0.73 98 1006.6
20260506145503 43 315 5.0 6.0 0.00 1.04 0.73 98 1006.5
20260506145003 43 315 5.0 6.0 0.00 1.04 0.73 98 1006.5
20260506144715 43 315 5.0 6.0 0.00 1.04 0.73 98 1006.8
20260506144004 43 315 5.0 6.0 0.00 1.04 0.73 98 1006.8
20260506143503 43 315 5.0 6.0 0.00 1.04 0.73 98 1006.8
20260506143214 43 315 5.0 6.0 0.00 1.04 0.73 98 1006.7
20260506142504 43 315 5.0 6.0 0.00 1.05 0.73 98 1006.8
20260506142215 43 315 5.0 6.0 0.00 1.05 0.73 98 1006.8
20260506141503 43 315 5.0 6.0 0.00 1.05 0.73 98 1006.9
20260506141003 43 315 5.0 6.0 0.00 1.05 0.73 98 1006.8
20260506140503 43 315 5.0 6.0 0.00 1.06 0.73 98 1006.8
20260506140003 43 315 5.0 6.0 0.00 1.06 0.73 98 1006.9
20260506135503 43 315 5.0 6.0 0.00 1.06 0.73 98 1007.0
20260506135004 43 315 5.0 6.0 0.00 1.06 0.73 98 1006.9
20260506134504 43 315 5.0 6.0 0.00 1.07 0.73 98 1007.0
20260506134004 43 315 5.0 6.0 0.01 1.07 0.73 98 1007.0
20260506133717 43 315 5.0 6.0 0.01 1.07 0.73 98 1007.1
20260506133004 43 315 5.0 6.0 0.02 1.07 0.73 98 1007.0
20260506132718 43 315 5.0 6.0 0.02 1.07 0.73 98 1007.1
20260506132004 43 315 5.0 6.0 0.07 1.07 0.73 98 1006.9
20260506131504 43 315 5.0 6.0 0.07 1.09 0.73 98 1007.1
20260506131004 43 315 5.0 6.0 0.15 1.09 0.73 98 1006.8
20260506130504 43 315 5.0 6.0 0.20 1.09 0.73 98 1007.1
20260506130005 43 315 5.0 6.0 0.20 1.09 0.73 98 1007.1
20260506125504 43 318 5.0 6.0 0.20 1.10 0.73 98 1006.8
20260506125004 43 325 5.0 8.0 0.21 1.10 0.73 98 1006.3
20260506124504 42 327 2.0 11.0 0.22 1.10 0.73 98 1007.0
20260506124004 42 321 6.0 11.0 0.24 1.10 0.72 98 1006.9
20260506123504 42 319 9.0 11.0 0.26 1.10 0.72 98 1007.0
20260506123004 42 319 8.0 11.0 0.26 1.09 0.71 98 1007.4
20260506122504 42 312 7.0 11.0 0.24 1.07 0.69 97 1007.6
20260506122003 42 288 4.0 5.0 0.21 1.05 0.66 97 1007.6
20260506121504 42 125 0.0 7.0 0.20 1.04 0.65 97 1007.4
20260506121004 43 101 2.0 7.0 0.13 0.97 0.58 96 1007.2
20260506120504 44 97 3.0 4.0 0.09 0.92 0.53 94 1006.4
20260506120004 44 133 3.0 4.0 0.09 0.92 0.53 94 1006.1
20260506115716 44 154 1.0 3.0 0.09 0.92 0.53 94 1005.9
20260506115003 44 134 0.0 6.0 0.08 0.91 0.52 92 1006.2
20260506114503 44 128 2.0 6.0 0.08 0.90 0.51 92 1006.0
20260506114003 46 10 4.0 8.0 0.05 0.87 0.47 87 1005.8
20260506113503 47 323 1.0 11.0 0.04 0.86 0.46 86 1005.8
20260506113003 47 333 3.0 11.0 0.04 0.85 0.45 87 1005.6
20260506112503 47 328 4.0 11.0 0.04 0.85 0.45 87 1005.8
20260506112003 47 332 5.0 11.0 0.05 0.85 0.45 87 1005.5
20260506111503 47 337 4.0 8.0 0.05 0.85 0.45 87 1005.3
20260506111004 47 336 3.0 12.0 0.06 0.86 0.45 87 1005.4
20260506110503 47 320 3.0 12.0 0.07 0.85 0.44 87 1005.5
20260506110003 47 323 7.0 12.0 0.07 0.86 0.44 87 1005.3
20260506105503 47 19 6.0 10.0 0.07 0.86 0.44 89 1005.7
20260506105003 47 338 2.0 6.0 0.08 0.86 0.44 89 1005.9
20260506104503 47 343 4.0 6.0 0.08 0.86 0.43 90 1005.8
20260506104003 47 355 3.0 4.0 0.09 0.86 0.43 90 1005.3
20260506103503 47 319 2.0 7.0 0.08 0.85 0.41 91 1005.8
20260506103003 46 336 2.0 7.0 0.08 0.85 0.41 91 1005.7
20260506102503 46 8 2.0 6.0 0.08 0.85 0.41 92 1005.9
20260506102003 46 280 2.0 6.0 0.07 0.85 0.40 92 1006.1
20260506101503 46 339 1.0 4.0 0.07 0.85 0.40 91 1005.9
20260506101003 46 99 2.0 4.0 0.06 0.84 0.39 91 1005.8
20260506100504 46 101 1.0 4.0 0.05 0.81 0.37 91 1005.8
20260506100004 46 8 1.0 14.0 0.05 0.81 0.37 91 1005.6
20260506095504 46 93 4.0 14.0 0.05 0.83 0.37 92 1005.5
20260506095004 46 129 11.0 14.0 0.04 0.81 0.35 92 1005.3
20260506094504 46 192 1.0 11.0 0.02 0.80 0.34 92 1005.4
20260506094004 46 231 2.0 8.0 0.01 0.79 0.33 91 1005.6
20260506093504 45 180 0.0 5.0 0.01 0.79 0.33 94 1005.5
20260506093217 46 160 1.0 5.0 0.01 0.79 0.33 90 1005.5
20260506092504 47 113 0.0 4.0 0.01 0.80 0.33 90 1005.4
20260506092004 47 33 2.0 4.0 0.01 0.80 0.33 90 1005.3
20260506091504 47 338 0.0 8.0 0.01 0.80 0.33 91 1005.4
20260506091004 47 350 4.0 8.0 0.01 0.80 0.33 92 1005.3
20260506090504 47 358 4.0 8.0 0.00 0.79 0.32 96 1005.4
20260506090004 47 313 2.0 10.0 0.00 0.80 0.32 98 1005.3
20260506085504 47 306 3.0 10.0 0.00 0.80 0.32 99 1005.2
20260506085216 47 311 6.0 10.0 0.00 0.80 0.32 99 1005.1
20260506084504 46 353 1.0 6.0 0.00 0.80 0.32 99 1005.3
20260506084004 47 249 1.0 4.0 0.00 0.80 0.32 99 1005.4
20260506083504 46 174 4.0 5.0 0.00 0.80 0.32 99 1005.1
20260506083003 47 143 2.0 5.0 0.00 0.81 0.32 99 1005.2
20260506082503 47 182 0.0 4.0 0.00 0.81 0.32 99 1005.3
20260506082004 47 180 1.0 4.0 0.00 0.83 0.32 99 1005.3
20260506081503 46 241 2.0 4.0 0.00 0.84 0.32 99 1005.3
20260506081003 46 332 2.0 3.0 0.00 0.85 0.32 99 1005.5
20260506080503 46 245 2.0 6.0 0.00 0.89 0.32 98 1005.2
20260506080216 46 139 2.0 8.0 0.00 0.89 0.32 98 1005.4
20260506073503 45 84 5.0 7.0 0.01 0.99 0.32 99 1005.5
20260506073003 45 287 0.0 4.0 0.01 1.00 0.32 99 1005.6
20260506072504 45 346 1.0 5.0 0.02 1.02 0.32 99 1005.6
20260506072214 45 310 3.0 5.0 0.02 1.03 0.32 99 1005.9
20260506071503 45 313 2.0 5.0 0.02 1.05 0.32 99 1005.7
20260506071215 45 340 2.0 4.0 0.04 1.05 0.32 99 1005.8
20260506070713 45 86 0.0 8.0 0.04 1.09 0.32 99 1005.6
20260506062504 44 358 3.0 4.0 0.06 1.13 0.30 99 1005.7
20260506062004 44 352 2.0 4.0 0.07 1.15 0.30 99 1005.6
20260506061504 44 323 1.0 4.0 0.07 1.16 0.30 99 1005.6
20260506061004 44 317 2.0 4.0 0.07 1.16 0.28 99 1005.7
20260506060504 44 324 1.0 2.0 0.07 1.16 0.27 99 1005.8
20260506051004 46 315 0.0 2.0 0.01 1.17 0.21 99 1006.4
20260506050504 46 329 0.0 1.0 0.01 1.17 0.20 99 1006.5
20260506045004 46 158 0.0 1.0 0.01 1.18 0.20 99 1006.4
20260506044504 46 315 0.0 1.0 0.02 1.18 0.20 99 1006.3
20260506044003 46 16 0.0 1.0 0.02 1.18 0.20 99 1006.3
20260506043717 46 344 0.0 2.0 0.02 1.18 0.20 99 1006.5
20260506043003 46 315 0.0 2.0 0.04 1.18 0.20 99 1006.4
20260506042504 46 315 0.0 2.0 0.05 1.18 0.20 99 1006.6
20260506042003 46 281 0.0 2.0 0.05 1.18 0.20 99 1006.6
20260506041503 46 203 0.0 1.0 0.05 1.18 0.20 99 1006.9
20260506041003 45 180 0.0 1.0 0.05 1.18 0.20 99 1006.8
20260506040503 45 360 0.0 1.0 0.04 1.18 0.19 99 1006.8
20260506040003 45 360 0.0 1.0 0.04 1.18 0.19 99 1006.8
20260506035503 45 360 0.0 1.0 0.04 1.18 0.19 99 1006.7
20260506035004 45 360 0.0 1.0 0.02 1.17 0.18 99 1006.8
20260506034503 45 340 0.0 2.0 0.02 1.17 0.18 99 1006.7
20260506034215 45 332 0.0 2.0 0.02 1.17 0.18 99 1006.8
20260506033504 46 331 0.0 1.0 0.02 1.17 0.18 99 1006.9
20260506033003 46 360 0.0 1.0 0.01 1.16 0.17 99 1007.1
20260506032714 46 360 0.0 1.0 0.02 1.16 0.17 99 1006.9
20260506032217 46 360 0.0 1.0 0.01 1.15 0.15 99 1007.1
20260506031503 46 327 0.0 2.0 0.01 1.15 0.15 99 1007.2
20260506031003 46 328 0.0 2.0 0.01 1.15 0.15 99 1007.3
20260506030503 46 344 0.0 2.0 0.01 1.15 0.15 99 1007.3
20260506030003 46 343 0.0 2.0 0.01 1.15 0.15 99 1007.1
20260506025504 46 360 0.0 1.0 0.02 1.15 0.15 99 1007.2
20260506025005 46 5 0.0 1.0 0.02 1.15 0.15 99 1007.4
20260506024504 46 20 0.0 1.0 0.04 1.15 0.15 99 1007.6
20260506024004 46 45 0.0 1.0 0.04 1.15 0.15 99 1007.6
20260506023504 46 45 0.0 1.0 0.04 1.15 0.15 99 1007.7
20260506023004 46 344 0.0 2.0 0.05 1.15 0.15 99 1007.8
20260506022715 46 319 0.0 2.0 0.04 1.13 0.15 99 1007.9
20260506022004 46 342 1.0 2.0 0.04 1.13 0.14 99 1007.7
20260506021504 46 359 0.0 2.0 0.04 1.13 0.14 99 1007.6
20260506021004 46 317 0.0 2.0 0.04 1.13 0.14 99 1007.9
20260506020504 45 316 2.0 4.0 0.04 1.13 0.14 99 1007.8
20260506020004 45 345 2.0 4.0 0.05 1.13 0.14 99 1007.9
20260506015504 46 103 1.0 3.0 0.04 1.12 0.13 99 1007.9
20260506015004 46 338 0.0 2.0 0.04 1.12 0.13 99 1007.9
20260506014504 46 360 0.0 1.0 0.04 1.11 0.12 99 1007.8
20260506014216 46 350 0.0 2.0 0.04 1.11 0.12 99 1007.7
20260506013504 46 352 1.0 2.0 0.02 1.10 0.11 99 1007.8
20260506013004 46 360 0.0 2.0 0.02 1.10 0.11 99 1008.0
20260506012715 46 347 1.0 2.0 0.02 1.10 0.11 99 1008.0
20260506012003 46 346 1.0 2.0 0.02 1.10 0.11 99 1008.1
20260506011503 46 360 0.0 1.0 0.04 1.10 0.11 99 1008.0
20260506011003 46 338 0.0 1.0 0.04 1.10 0.11 99 1008.2
20260506010503 46 30 0.0 1.0 0.04 1.10 0.11 99 1008.2
20260506010215 46 54 0.0 1.0 0.02 1.09 0.09 99 1008.4
20260506005503 46 9 0.0 2.0 0.02 1.09 0.09 99 1008.3
20260506005003 46 341 0.0 2.0 0.02 1.09 0.09 99 1008.4
20260506004504 46 324 1.0 2.0 0.01 1.07 0.08 99 1008.4
20260506004003 46 301 0.0 1.0 0.01 1.07 0.08 99 1008.4
20260506003503 46 330 0.0 1.0 0.01 1.07 0.08 99 1008.4
20260506003003 46 349 0.0 1.0 0.01 1.07 0.08 99 1008.6
20260506002503 46 350 0.0 1.0 0.01 1.07 0.08 99 1008.4
20260506002004 46 351 0.0 1.0 0.01 1.07 0.08 99 1008.6
20260506001503 46 324 0.0 1.0 0.00 1.06 0.07 99 1008.6
20260506001003 46 315 0.0 1.0 0.01 1.06 0.07 99 1008.6
20260506000503 46 315 0.0 1.0 0.01 1.06 0.07 99 1008.7
20260506000216 46 315 0.0 1.0 0.01 1.06 0.07 99 1008.6
20260505235503 46 117 0.0 1.0 0.02 1.06 0.07 99 1008.8
20260505235003 46 114 1.0 1.0 0.02 1.06 0.07 99 1009.1
20260505234503 46 335 0.0 1.0 0.02 1.06 0.07 99 1008.7
20260505234003 46 334 0.0 1.0 0.04 1.06 0.07 99 1008.9
20260505233503 46 356 0.0 1.0 0.04 1.06 0.07 99 1008.9